Terug naar catalogus

STARLINK-3979

ActiefCommunicatieVLEO
NORAD 52608·PAYLOAD·🇺🇸 United States

Gelanceerd May 14, 2022 vanaf Cape Canaveral Space Force Station

Loading…

Volgende Passages (komende 24 uur)

TLE

VersSource: CelesTrak SupGP

Epoch: Sep 14, 2026, 21:00 UTC

1 52608C 22052L   26257.87548611 -.00023722  00000+0 -67917-3 0  2571
2 52608  53.1579 142.3765 0001155  97.1751  78.8879 15.35388392    18

Volg STARLINK-3979 in realtime met AllMySat

Download on the App Store